E24CR-1 Weather Reports


Display with metric or nautical units.
time (UTC)temp
F
wind
direction
speed
MPH
gust
MPH
rain 1hr
in
rain 24hr
in
rain mn
in
humidity
%
barometer
mb
20260902112539 74 0 0.0 0.0 0.00 0.00 0.00 95 950.0
20260902111515 74 0 0.0 0.0 0.00 0.00 0.00 93 950.0
20260902110450 75 0 0.0 0.0 0.00 0.00 0.00 91 950.0
20260902105425 76 0 0.0 0.0 0.00 0.00 0.00 86 950.0
20260902104400 77 0 0.0 0.0 0.00 0.00 0.00 82 950.0
20260902103335 79 0 0.0 0.0 0.00 0.00 0.00 78 949.0
20260902102310 79 0 0.0 0.0 0.00 0.00 0.00 77 949.0
20260902101108 80 0 0.0 0.0 0.00 0.00 0.00 77 949.0
20260902100044 80 0 0.0 0.0 0.00 0.00 0.00 78 949.0
20260902095018 80 0 0.0 0.0 0.00 0.00 0.00 79 949.0
20260902093954 80 0 0.0 0.0 0.00 0.00 0.00 76 949.0
20260902092929 80 0 0.0 0.0 0.00 0.00 0.00 84 949.0
20260902091904 81 0 0.0 0.0 0.00 0.00 0.00 76 949.0
20260902090839 81 0 0.0 0.0 0.00 0.00 0.00 77 949.0
20260902085814 81 0 0.0 0.0 0.00 0.00 0.00 77 948.0
20260902084749 81 0 0.0 0.0 0.00 0.00 0.00 77 949.0
20260902083721 81 0 0.0 0.0 0.00 0.00 0.00 76 949.0
20260902082649 80 0 0.0 0.0 0.00 0.00 0.00 77 949.0
20260902081412 79 0 0.0 0.0 0.00 0.00 0.00 76 949.0
20260902080345 78 0 0.0 0.0 0.00 0.00 0.00 78 949.0
20260902075318 78 0 0.0 0.0 0.00 0.00 0.00 78 949.0
20260902074252 81 0 0.0 0.0 0.00 0.00 0.00 71 949.0
20260902073227 82 0 0.0 0.0 0.00 0.00 0.00 68 949.0
20260902072202 84 0 0.0 0.0 0.00 0.00 0.00 64 950.0
20260902071138 87 0 0.0 0.0 0.00 0.00 0.00 59 950.0
20260902070113 86 0 0.0 0.0 0.00 0.00 0.00 61 950.0
20260902065049 89 0 0.0 0.0 0.00 0.00 0.00 57 950.0
20260902064024 87 0 0.0 0.0 0.00 0.00 0.00 59 950.0
20260902062959 87 0 0.0 0.0 0.00 0.00 0.00 60 950.0
20260902061935 86 0 0.0 0.0 0.00 0.00 0.00 61 951.0
20260902060910 85 0 0.0 0.0 0.00 0.00 0.00 64 951.0
20260902055846 86 0 0.0 0.0 0.00 0.00 0.00 61 951.0
20260902054822 85 0 0.0 0.0 0.00 0.00 0.00 62 951.0
20260902053757 88 0 0.0 0.0 0.00 0.00 0.00 58 951.0
20260902052733 87 0 0.0 0.0 0.00 0.00 0.00 60 951.0
20260902051709 87 0 0.0 0.0 0.00 0.00 0.00 57 952.0
20260902050644 86 0 0.0 0.0 0.00 0.00 0.00 60 952.0
20260902045620 88 0 0.0 0.0 0.00 0.00 0.00 60 952.0
20260902044555 87 0 0.0 0.0 0.00 0.00 0.00 58 952.0
20260902043530 88 0 0.0 0.0 0.00 0.00 0.00 58 952.0
20260902042505 87 0 0.0 0.0 0.00 0.00 0.00 59 952.0
20260902041441 86 0 0.0 0.0 0.00 0.00 0.00 64 952.0
20260902040416 84 0 0.0 0.0 0.00 0.00 0.00 68 953.0
20260902035351 83 0 0.0 0.0 0.00 0.00 0.00 64 953.0
20260902034327 82 0 0.0 0.0 0.00 0.00 0.00 71 953.0
20260902033302 81 0 0.0 0.0 0.00 0.00 0.00 73 953.0
20260902032756 82 0 0.0 0.0 0.00 0.00 0.00 75 953.0
20260902031732 83 0 0.0 0.0 0.00 0.00 0.00 69 953.0
20260902030707 81 0 0.0 0.0 0.00 0.00 0.00 72 953.0
20260902025643 83 0 0.0 0.0 0.00 0.00 0.00 70 953.0
20260902024618 85 0 0.0 0.0 0.00 0.00 0.00 67 953.0
20260902023554 85 0 0.0 0.0 0.00 0.00 0.00 66 953.0
20260902022529 85 0 0.0 0.0 0.00 0.00 0.00 65 953.0
20260902021505 82 0 0.0 0.0 0.00 0.00 0.00 72 953.0
20260902020440 80 0 0.0 0.0 0.00 0.00 0.00 74 953.0
20260902015416 80 0 0.0 0.0 0.00 0.00 0.00 75 953.0
20260902014352 79 0 0.0 0.0 0.00 0.00 0.00 79 953.0
20260902013327 78 0 0.0 0.0 0.00 0.00 0.00 81 953.0
20260902012308 78 0 0.0 0.0 0.00 0.00 0.00 81 953.0
20260902011239 77 0 0.0 0.0 0.00 0.00 0.00 84 953.0
20260902010214 76 0 0.0 0.0 0.00 0.00 0.00 85 952.0
20260902005149 76 0 0.0 0.0 0.00 0.00 0.00 84 952.0
20260902004124 75 0 0.0 0.0 0.00 0.00 0.00 85 952.0
20260902003732 75 0 0.0 0.0 0.00 0.00 0.00 85 952.0
20260902002708 75 0 0.0 0.0 0.00 0.00 0.00 88 952.0
20260902001644 75 0 0.0 0.0 0.00 0.00 0.00 85 952.0
20260902000620 74 0 0.0 0.0 0.00 0.00 0.00 86 952.0
20260901235555 74 0 0.0 0.0 0.00 0.00 0.00 84 952.0
20260901234531 74 0 0.0 0.0 0.00 0.00 0.00 85 952.0
20260901233507 74 0 0.0 0.0 0.00 0.00 0.00 85 952.0
20260901232443 74 0 0.0 0.0 0.00 0.00 0.00 84 951.0
20260901231418 74 0 0.0 0.0 0.00 0.00 0.00 84 951.0
20260901230353 74 0 0.0 0.0 0.00 0.00 0.00 83 951.0
20260901225328 74 0 0.0 0.0 0.00 0.00 0.00 83 951.0
20260901224304 74 0 0.0 0.0 0.00 0.00 0.00 83 951.0
20260901223238 74 0 0.0 0.0 0.00 0.00 0.00 84 951.0
20260901222214 74 0 0.0 0.0 0.00 0.00 0.00 82 951.0
20260901221150 74 0 0.0 0.0 0.00 0.00 0.00 82 951.0
20260901220125 75 0 0.0 0.0 0.00 0.00 0.00 81 951.0
20260901215101 75 0 0.0 0.0 0.00 0.00 0.00 80 951.0
20260901214036 75 0 0.0 0.0 0.00 0.00 0.00 78 951.0
20260901213644 75 0 0.0 0.0 0.00 0.00 0.00 78 951.0
20260901212620 75 0 0.0 0.0 0.00 0.00 0.00 78 951.0
20260901211555 75 0 0.0 0.0 0.00 0.00 0.00 79 951.0
20260901210530 75 0 0.0 0.0 0.00 0.00 0.00 76 951.0
20260901205506 75 0 0.0 0.0 0.00 0.00 0.00 78 951.0
20260901204441 76 0 0.0 0.0 0.00 0.00 0.00 75 951.0
20260901203417 76 0 0.0 0.0 0.00 0.00 0.00 75 951.0
20260901202353 76 0 0.0 0.0 0.00 0.00 0.00 74 951.0
20260901201329 76 0 0.0 0.0 0.00 0.00 0.00 74 951.0
20260901200304 76 0 0.0 0.0 0.00 0.00 0.00 75 951.0
20260901195240 76 0 0.0 0.0 0.00 0.00 0.00 76 951.0
20260901194216 76 0 0.0 0.0 0.00 0.00 0.00 75 951.0
20260901193152 76 0 0.0 0.0 0.00 0.00 0.00 76 952.0
20260901192126 76 0 0.0 0.0 0.00 0.00 0.00 74 952.0
20260901191102 76 0 0.0 0.0 0.00 0.00 0.00 76 952.0
20260901190038 76 0 0.0 0.0 0.00 0.00 0.00 75 952.0
20260901185013 76 0 0.0 0.0 0.00 0.00 0.00 76 952.0
20260901183948 76 0 0.0 0.0 0.00 0.00 0.00 77 952.0
20260901182924 77 0 0.0 0.0 0.00 0.00 0.00 75 952.0
20260901181900 77 0 0.0 0.0 0.00 0.00 0.00 76 952.0
20260901180836 77 0 0.0 0.0 0.00 0.00 0.00 74 952.0
20260901175811 77 0 0.0 0.0 0.00 0.00 0.00 75 953.0
20260901174747 77 0 0.0 0.0 0.00 0.00 0.00 75 953.0
20260901173722 77 0 0.0 0.0 0.00 0.00 0.00 75 953.0
20260901172658 77 0 0.0 0.0 0.00 0.00 0.00 77 953.0
20260901171633 77 0 0.0 0.0 0.00 0.00 0.00 78 953.0
20260901170609 77 0 0.0 0.0 0.00 0.00 0.00 77 953.0
20260901165545 77 0 0.0 0.0 0.00 0.00 0.00 77 953.0
20260901164520 77 0 0.0 0.0 0.00 0.00 0.00 78 953.0
20260901163456 77 0 0.0 0.0 0.00 0.00 0.00 79 953.0
20260901162432 77 0 0.0 0.0 0.00 0.00 0.00 80 953.0
20260901161407 77 0 0.0 0.0 0.00 0.00 0.00 81 953.0
20260901160342 77 0 0.0 0.0 0.00 0.00 0.00 81 953.0
20260901155318 77 0 0.0 0.0 0.00 0.00 0.00 82 953.0
20260901154253 78 0 0.0 0.0 0.00 0.00 0.00 83 953.0
20260901153229 78 0 0.0 0.0 0.00 0.00 0.00 81 953.0
20260901152201 79 0 0.0 0.0 0.00 0.00 0.00 78 953.0
20260901151512 79 0 0.0 0.0 0.00 0.00 0.00 76 953.0
20260901150448 79 0 0.0 0.0 0.00 0.00 0.00 76 953.0
20260901145423 79 0 0.0 0.0 0.00 0.00 0.00 80 953.0
20260901144359 79 0 0.0 0.0 0.00 0.00 0.00 79 953.0
20260901143334 78 0 0.0 0.0 0.00 0.00 0.00 84 952.0
20260901142310 79 0 0.0 0.0 0.00 0.00 0.00 80 952.0
20260901141246 80 0 0.0 0.0 0.00 0.00 0.00 71 952.0
20260901140221 80 0 0.0 0.0 0.00 0.00 0.00 71 952.0
20260901135157 80 0 0.0 0.0 0.00 0.00 0.00 72 952.0
20260901134132 80 0 0.0 0.0 0.00 0.00 0.00 74 951.0
20260901133108 80 0 0.0 0.0 0.00 0.00 0.00 76 951.0
20260901132044 81 0 0.0 0.0 0.00 0.00 0.00 73 951.0
20260901131019 81 0 0.0 0.0 0.00 0.00 0.00 71 951.0
20260901125955 81 0 0.0 0.0 0.00 0.00 0.00 69 951.0
20260901124930 81 0 0.0 0.0 0.00 0.00 0.00 71 951.0
20260901123906 82 0 0.0 0.0 0.00 0.00 0.00 72 951.0
20260901122842 82 0 0.0 0.0 0.00 0.00 0.00 66 951.0
20260901121817 82 0 0.0 0.0 0.00 0.00 0.00 66 951.0
20260901120753 82 0 0.0 0.0 0.00 0.00 0.00 66 950.0
20260901115728 82 0 0.0 0.0 0.00 0.00 0.00 67 950.0
20260901114704 82 0 0.0 0.0 0.00 0.00 0.00 68 950.0
20260901113639 82 0 0.0 0.0 0.00 0.00 0.00 71 950.0